ANIK G1

Last updated on Sat Nov 01 2025 00:02:47 GMT+0000 (Coordinated Universal Time)

1 39127U 13014A 25304.59048198 .00000000 00000+0 00000+0 0 9997 2 39127 0.0160 246.3444 0003723 355.5577 263.5072 1.00270162 45968
UTC large
Height (km)
Speed (km/s)
/
Latitude / Longitude
Inclination (degrees)
Orbital Period (minutes)
Azimuth
Elevation
Range (km)
Doppler Factor

Next 0 passes for location: London (51.5072 / 0.1276)

Sorry there are no passes over London.